Weather reports worldwide

Advertisment
Baltasound, United Kingdom (3002): temperature & dewpoint: 23.05.2020 14:00:00 - 29.05.2020 14:00:00 (BST)Baltasound, United Kingdom (3002): temperature -20cm: 23.05.2020 14:00:00 - 29.05.2020 14:00:00 (BST)Baltasound, United Kingdom (3002): wind speed & gusts: 23.05.2020 14:00:00 - 29.05.2020 14:00:00 (BST)Baltasound, United Kingdom (3002): wind direction: 23.05.2020 14:00:00 - 29.05.2020 14:00:00 (BST)Baltasound, United Kingdom (3002): reduced air pressure: 23.05.2020 14:00:00 - 29.05.2020 14:00:00 (BST)Baltasound, United Kingdom (3002): visibility: 23.05.2020 14:00:00 - 29.05.2020 14:00:00 (BST)Baltasound, United Kingdom (3002): precipitation: 23.05.2020 14:00:00 - 29.05.2020 14:00:00 (BST)
Date & Time tt [°C] td [°C] tt -20cm [°C] ff [km/h] ff [kn] fx [km/h] fx [kn] dd ppp [hPa] vv [km] rr [mm]
29.05.2020 14:00:00 11,9 9,3 - 21 11 - - SE 1029,5 21 0,0
29.05.2020 13:00:00 11,7 8,8 - 22 12 - - SE 1029,8 29 0,0
29.05.2020 12:00:00 11,8 9,3 - 22 12 - - SE 1029,9 28 0,0
29.05.2020 11:00:00 11,5 9,1 - 21 11 - - SE 1030,1 40 0,0
29.05.2020 10:00:00 11,5 9,0 10,2 18 10 - - SE 1030,0 40 0,0
29.05.2020 09:00:00 10,7 9,5 - 13 7 - - SSE 1030,2 17 0,0
29.05.2020 08:00:00 10,1 9,2 - 13 7 - - SSE 1030,2 12 0,0
29.05.2020 07:00:00 10,1 8,8 - 11 6 - - SSE 1029,9 28 0,0
29.05.2020 06:00:00 10,2 8,6 - 15 8 - - S 1030,2 50 0,0
29.05.2020 05:00:00 9,7 8,8 - 13 7 - - SSE 1030,1 35 0,0
29.05.2020 04:00:00 9,6 9,0 - 9 5 - - S 1030,1 25 0,0
29.05.2020 03:00:00 9,4 8,8 - 8 4 - - SSE 1030,3 11 0,0
29.05.2020 02:00:00 9,9 9,5 - 11 6 - - S 1030,4 26 0,0
29.05.2020 01:00:00 9,6 9,3 - 2 1 - - SSE 1030,4 11 0,0
29.05.2020 00:00:00 9,5 9,2 - 4 2 - - NE 1030,7 7 0,0
28.05.2020 23:00:00 9,3 8,9 - 13 7 - - S 1030,5 10 0,0
28.05.2020 22:00:00 9,4 8,9 - 18 10 - - S 1030,6 11 0,0
28.05.2020 21:00:00 9,7 8,9 - 18 10 - - S 1030,3 15 0,0
28.05.2020 20:00:00 9,9 9,1 - 21 11 - - S 1030,3 13 0,0
28.05.2020 19:00:00 10,2 9,1 - 21 11 - - SSE 1030,3 15 0,0
28.05.2020 18:00:00 10,4 9,4 - 24 13 - - S 1030,6 24 0,0
28.05.2020 17:00:00 10,1 9,5 - 26 14 - - S 1030,5 3,4 0,0
28.05.2020 16:00:00 10,0 9,2 - 24 13 - - SSE 1030,8 2,7 0,0
28.05.2020 15:00:00 9,9 9,0 - 28 15 - - SSE 1031,1 10 0,0
28.05.2020 14:00:00 10,0 8,8 - 28 15 - - S 1031,4 15 0,0
28.05.2020 13:00:00 10,2 8,8 - 29 16 - - S 1031,5 19 0,0
28.05.2020 12:00:00 10,0 8,5 - 31 17 - - S 1031,6 12 0,0
28.05.2020 11:00:00 9,6 8,6 - 29 16 - - SSE 1031,7 14 0,0
28.05.2020 10:00:00 9,3 7,8 10,2 26 14 - - SSE 1032,2 12 0,0
28.05.2020 09:00:00 10,3 8,2 - 24 13 - - SSE 1032,3 14 0,0
28.05.2020 08:00:00 9,9 7,6 - 22 12 - - SSE 1032,7 13 0,0
28.05.2020 07:00:00 9,3 7,9 - 16 9 - - S 1032,9 17 0,0
28.05.2020 06:00:00 8,5 7,4 - 15 8 - - SSE 1033,3 14 0,0
28.05.2020 05:00:00 8,0 7,3 - 15 8 - - S 1033,5 15 0,0
28.05.2020 04:00:00 6,6 6,2 - 18 10 - - SSW 1034,1 14 0,0
28.05.2020 03:00:00 6,2 5,8 - 16 9 - - SSW 1034,4 12 0,0
28.05.2020 02:00:00 6,3 6,0 - 18 10 - - SW 1034,5 13 0,0
28.05.2020 01:00:00 5,9 5,3 - 15 8 - - SSW 1034,8 10 0,0
28.05.2020 00:00:00 6,6 5,8 - 16 9 - - SW 1035,1 9 0,0
27.05.2020 23:00:00 6,8 5,2 - 16 9 - - SW 1035,2 11 0,0
27.05.2020 22:00:00 8,9 6,6 - 21 11 - - WSW 1035,6 15 0,0
27.05.2020 21:00:00 9,9 5,4 - 22 12 - - WSW 1035,3 17 0,0
27.05.2020 20:00:00 10,4 6,2 - 22 12 - - WSW 1035,0 16 0,0
27.05.2020 19:00:00 10,4 5,6 - 26 14 - - W 1035,0 23 0,0
27.05.2020 18:00:00 11,6 6,7 - 26 14 - - W 1035,0 20 0,0
27.05.2020 17:00:00 12,1 6,6 - 29 16 - - W 1034,9 19 0,0
27.05.2020 16:00:00 11,9 6,5 - 29 16 - - W 1034,8 17 0,0
27.05.2020 15:00:00 11,9 6,9 - 31 17 - - W 1034,6 20 0,0
27.05.2020 14:00:00 12,0 6,8 - 31 17 - - W 1034,4 18 0,0
27.05.2020 13:00:00 12,2 7,7 - 29 16 48 26 W 1034,1 12 0,0
27.05.2020 12:00:00 11,7 6,7 - 31 17 - - W 1033,8 15 0,0
27.05.2020 11:00:00 11,6 7,2 - 34 18 46 25 W 1033,5 30 0,0
27.05.2020 10:00:00 10,9 6,7 9,9 31 17 46 25 W 1033,0 13 0,0
27.05.2020 09:00:00 10,8 6,5 - 35 19 - - W 1032,5 13 0,0
27.05.2020 08:00:00 11,0 8,0 - 29 16 - - W 1032,1 9 0,0
27.05.2020 07:00:00 9,5 7,0 - 28 15 - - W 1031,8 10 0,0
27.05.2020 06:00:00 9,4 7,5 - 29 16 - - WSW 1031,4 9 0,0
27.05.2020 05:00:00 9,0 7,1 - 28 15 - - W 1031,2 9 0,0
27.05.2020 04:00:00 8,2 5,9 - 35 19 57 31 WSW 1031,2 21 0,0
27.05.2020 03:00:00 8,4 6,2 - 28 15 - - WSW 1031,4 13 0,0
27.05.2020 02:00:00 9,2 7,4 - 29 16 - - WSW 1031,4 12 0,0
27.05.2020 01:00:00 9,4 7,7 - 34 18 - - WSW 1031,6 9 0,0
27.05.2020 00:00:00 9,3 7,7 - 34 18 48 26 WSW 1031,4 11 0,0
26.05.2020 23:00:00 9,6 7,5 - 37 20 50 27 WSW 1031,4 11 0,0
26.05.2020 22:00:00 9,8 7,9 - 35 19 48 26 SW 1031,5 10 0,0
26.05.2020 21:00:00 10,1 7,9 - 35 19 48 26 WSW 1031,6 9 0,0
26.05.2020 20:00:00 10,8 7,9 - 34 18 - - WSW 1031,3 10 0,0
26.05.2020 19:00:00 11,5 7,7 - 35 19 50 27 W 1030,9 11 0,0
26.05.2020 18:00:00 11,9 7,5 - 37 20 52 28 WSW 1030,8 11 0,0
26.05.2020 17:00:00 12,3 7,8 - 41 22 54 29 W 1030,7 11 0,0
26.05.2020 16:00:00 12,6 7,4 - 41 22 52 28 W 1030,3 11 0,0
26.05.2020 15:00:00 13,0 8,2 - 41 22 57 31 WSW 1029,9 12 0,0
26.05.2020 14:00:00 13,3 8,3 - 44 24 59 32 WSW 1029,3 10 0,0
26.05.2020 13:00:00 12,8 8,4 - 41 22 57 31 WSW 1028,7 11 0,0
26.05.2020 12:00:00 12,7 8,4 - 46 25 59 32 WSW 1028,4 11 0,0
26.05.2020 11:00:00 12,8 8,7 - 46 25 59 32 WSW 1028,1 9 0,0
26.05.2020 10:00:00 11,6 8,8 9,7 37 20 50 27 SW 1027,8 8 0,0
26.05.2020 09:00:00 11,1 8,6 - 35 19 46 25 SW 1027,7 9 0,0
26.05.2020 08:00:00 10,6 8,9 - 28 15 - - SW 1027,3 8 0,0
26.05.2020 07:00:00 10,1 9,1 - 28 15 - - SW 1027,0 8 0,0
26.05.2020 06:00:00 9,4 8,5 - 26 14 - - SSW 1026,9 10 0,0
26.05.2020 05:00:00 9,1 8,1 - 26 14 - - SSW 1026,6 9 0,0
26.05.2020 04:00:00 7,9 7,1 - 21 11 - - S 1026,4 11 0,0
26.05.2020 03:00:00 9,6 8,4 - 28 15 - - SW 1026,0 10 0,0
26.05.2020 02:00:00 9,5 7,9 - 26 14 - - WSW 1025,7 11 0,0
26.05.2020 01:00:00 10,0 8,8 - 28 15 - - WSW 1025,6 10 0,0
26.05.2020 00:00:00 10,2 9,3 - 22 12 - - SW 1025,6 8 0,0
25.05.2020 23:00:00 10,3 9,1 - 26 14 - - SW 1025,5 18 0,0
25.05.2020 22:00:00 10,5 8,9 - 26 14 - - SW 1025,2 10 0,0
25.05.2020 21:00:00 10,9 8,6 - 15 8 - - S 1025,3 10 0,0
25.05.2020 20:00:00 10,5 8,1 - 28 15 - - S 1024,9 14 0,0
25.05.2020 19:00:00 11,0 7,8 - 29 16 50 27 S 1024,7 17 0,0
25.05.2020 18:00:00 11,1 7,5 - 37 20 50 27 S 1024,8 25 0,0
25.05.2020 17:00:00 11,2 7,8 - 34 18 - - S 1025,2 20 0,0
25.05.2020 16:00:00 12,0 8,4 - 34 18 48 26 S 1025,5 20 0,0
25.05.2020 15:00:00 13,8 9,4 - 34 18 48 26 S 1025,8 25 0,0
25.05.2020 14:00:00 14,4 9,4 - 34 18 - - S 1026,3 35 0,0
25.05.2020 13:00:00 14,5 9,7 - 34 18 46 25 S 1026,5 18 0,0
25.05.2020 12:00:00 13,9 9,0 - 34 18 - - S 1026,6 24 0,0
25.05.2020 11:00:00 13,5 9,0 - 34 18 - - S 1026,8 30 0,0
25.05.2020 10:00:00 12,9 9,0 9,2 34 18 - - SSW 1026,9 24 0,0
25.05.2020 09:00:00 11,8 9,5 - 34 18 - - SW 1027,0 23 0,0
25.05.2020 08:00:00 10,7 9,6 - 22 12 - - S 1027,0 9 0,0
25.05.2020 07:00:00 10,1 9,2 - 21 11 - - SSW 1026,6 10 0,0
25.05.2020 06:00:00 9,8 8,9 - 15 8 - - S 1026,5 9 0,0
25.05.2020 05:00:00 9,6 8,8 - 21 11 - - SW 1026,1 8 0,0
25.05.2020 04:00:00 9,8 8,9 - 15 8 - - SW 1025,8 8 0,0
25.05.2020 03:00:00 9,9 9,1 - 24 13 - - WSW 1025,6 8 0,0
25.05.2020 02:00:00 9,1 8,6 - 13 7 - - SSW 1025,4 10 0,0
25.05.2020 01:00:00 8,4 7,4 - 16 9 - - S 1025,0 5 0,0
25.05.2020 00:00:00 8,2 6,7 - 11 6 - - SSW 1024,8 26 0,0
24.05.2020 23:00:00 7,6 6,1 - 8 4 - - SW 1024,4 16 0,0
24.05.2020 22:00:00 8,5 6,1 - 13 7 - - W 1023,7 29 0,0
24.05.2020 21:00:00 8,7 6,1 - 13 7 - - W 1022,9 21 0,0
24.05.2020 20:00:00 8,9 6,4 - 22 12 - - WNW 1022,3 19 0,0
24.05.2020 19:00:00 8,8 6,7 - 22 12 - - WNW 1021,4 10 0,0
24.05.2020 18:00:00 9,0 6,4 - 26 14 - - WNW 1020,3 19 0,0
24.05.2020 17:00:00 9,2 6,9 - 29 16 - - WNW 1019,4 14 0,0
24.05.2020 16:00:00 9,2 7,2 - 29 16 - - WNW 1018,1 17 0,0
24.05.2020 15:00:00 9,7 7,9 - 34 18 - - WNW 1016,8 10 0,0
24.05.2020 14:00:00 10,1 8,3 - 35 19 48 26 WNW 1015,1 19 0,0
24.05.2020 13:00:00 9,8 8,4 - 34 18 - - WNW 1013,7 13 0,0
24.05.2020 12:00:00 9,9 8,2 - 34 18 52 28 WNW 1011,9 10 0,0
24.05.2020 11:00:00 9,4 8,7 - 35 19 55 30 WNW 1010,5 8 0,0
24.05.2020 10:00:00 9,1 8,3 9,2 34 18 48 26 WNW 1008,9 5 0,0
24.05.2020 09:00:00 9,8 8,5 - 29 16 - - WNW 1007,2 11 0,0
24.05.2020 08:00:00 9,6 8,4 - 31 17 46 25 WNW 1005,8 10 0,0
24.05.2020 07:00:00 9,7 8,7 - 34 18 52 28 WNW 1004,1 11 0,0
24.05.2020 06:00:00 9,0 8,8 - 35 19 50 27 WNW 1001,9 9 0,0
24.05.2020 05:00:00 8,9 8,8 - 29 16 - - NW 999,6 2,0 0,0
24.05.2020 04:00:00 9,0 8,9 - 26 14 - - WNW 997,0 11 0,0
24.05.2020 03:00:00 8,8 8,5 - 18 10 - - WNW 995,0 8 0,0
24.05.2020 02:00:00 8,8 8,4 - 15 8 - - W 993,7 7 0,0
24.05.2020 01:00:00 9,0 8,7 - 18 10 - - SW 993,4 4,8 0,0
24.05.2020 00:00:00 8,5 8,1 - 24 13 - - S 993,3 6 0,0
23.05.2020 23:00:00 8,6 7,8 - 24 13 - - S 993,4 9 0,0
23.05.2020 22:00:00 8,7 8,0 - 26 14 - - S 993,6 10 0,0
23.05.2020 21:00:00 9,1 8,0 - 26 14 - - SSW 993,8 12 0,0
23.05.2020 20:00:00 9,6 8,2 - 31 17 46 25 SW 993,7 17 0,0
23.05.2020 19:00:00 10,0 8,6 - 34 18 52 28 SSW 993,6 13 0,0
23.05.2020 18:00:00 10,2 9,1 - 35 19 - - SW 993,2 15 0,0
23.05.2020 17:00:00 10,2 9,2 - 34 18 46 25 SW 992,9 12 0,0
23.05.2020 16:00:00 10,4 9,6 - 39 21 48 26 SW 992,5 11 0,0
23.05.2020 15:00:00 9,7 9,3 - 31 17 - - SSW 991,9 2,6 0,0
23.05.2020 14:00:00 9,0 8,6 - 35 19 54 29 S 991,6 4,8 0,0

tt = temperature
td = dewpoint
tt -20cm = temperature -20cm
ff = wind speed
fx = gusts
dd = wind direction
ppp = reduced air pressure
vv = visibility
rr = precipitation

Next stations